Location: Tucson
(32.2217°N, 110.9265°W)
Time: 02:18:03
(UTC-07:00)

Tiros 1 - Pass Details

Date: 28 October 2021
Orbit: 630 x 663 km, 48.4° (Epoch: 07 December)

Event Time Altitude Azimuth Distance (km) Brightness Sun altitude
Rises 10:09:15 0° 282° (WNW) 2,985 10.2 36.4°
Reaches altitude 10° 10:12:30 10° 305° (NW) 2,070 9.4 36.8°
Maximum altitude 10:15:23 16° 342° (NNW) 1,718 9.0 37.1°
Drops below altitude 10° 10:18:15 10° 20° (NNE) 2,062 9.5 37.5°
Sets 10:21:29 0° 42° (NE) 2,967 10.4 37.8°
